Live-Position
3D-Globus wird geladen...
Über OneWeb SL0110
Group: 3 satellites
Beschreibung wird geladen...
Nächste Überflüge
Passes for default location (London). Set your location on the main map for personalized predictions.
Höhenverlauf
Loading altitude history...
No altitude history available
Zweizeiliger Elementsatz
1 47268U 20100L 26126.35683757 -.00000286 00000-0 -83039-3 0 9995
2 47268 87.8986 358.9742 0001711 77.2180 282.9139 13.12443804259064
Epoch: 6. Mai 2026 •
Age: 9 hours
Aktueller Status
Höhe 1243.8 km
Geschwindigkeit 7.23 km/s
Subsatellitenpunkt -86.79°S,
165.35°W
Startdatum 18. Dez. 2020
Alter 5.3 years
Typ internet
Startgruppe
Unknown Vehicle •
OneWeb Launch 4 •
36 satellites
OneWeb SL0128
47258
OneWeb SL0135 47259
OneWeb SL0145 47260
OneWeb SL0139 47261
OneWeb SL0127 47262
OneWeb SL0133 47263
OneWeb SL0118 47264
OneWeb SL0134 47265
OneWeb SL0102 47266
OneWeb SL0123 47267
OneWeb SL0120 47269
OneWeb SL0131 47270
OneWeb SL0142 47271
OneWeb SL0130 47272
OneWeb SL0136 47273
OneWeb SL0137 47274
OneWeb SL0147 47275
OneWeb SL0124 47276
OneWeb SL0126 47277
OneWeb SL0119 47278
...and 15 more
Technische Details
Klassifizierung Payload
Masse 148.00 kg
Trockenmasse 140.00 kg
Gesamtmasse 148.00 kg
Länge 1.30 m
Durchmesser 1.00 m
Spannweite 5.00 m
Form Trapezoid+2 pan
Hersteller ONEWUS
Bus-Typ ARROW
Phasenstatus In Orbit
Besitzer/Staat ONEWEB/UK
Most Searched
Loading...